Emporia, VA

12:59 PM EST on December 11, 2019 (GMT -0500)
Emporia-Greensville Regional

Weather History for KEMV - October, 2019

Change the Weather History Date:

Friday, October 25, 2019

  Actual Average Record
Temperature  
Mean Temperature 58 °F -  
Max Temperature 70 °F 70 °F 82 °F (1984)
Min Temperature 47 °F 42 °F 32 °F (1987)
Degree Days  
Heating Degree Days 6    
Growing Degree Days 8 (Base 50)    
Moisture  
Dew Point 54 °F    
Average Humidity 89    
Maximum Humidity 100    
Minimum Humidity 58    
Precipitation  
Precipitation 0.00 in - - ()
Sea Level Pressure  
Sea Level Pressure 30.28 in    
Wind  
Wind Speed 0 mph (SSE)    
Max Wind Speed 5 mph    
Max Gust Speed -    
Visibility 9 miles    
Events      
Averages and records for this station are not official NWS values.
T = Trace of Precipitation, MM = Missing Value Source: NWS Daily Summary

Daily Weather History Graph

Daily Weather History Graph

Search for Another Location

Airport or City:

Astronomy

Oct. 25, 2019 Rise Set
Actual Time 7:26 AM EDT 6:21 PM EDT
Civil Twilight 6:59 AM EDT 6:47 PM EDT
Nautical Twilight 6:29 AM EDT 7:17 PM EDT
Astronomical Twilight 5:59 AM EDT 7:47 PM EDT
Moon 4:13 AM EDT (10/25) 5:15 PM EDT (10/25)
Length of Visible Light 11h 47m
Length of Day
10h 54m
Waning Crescent, 9% of the Moon is Illuminated
Oct 25
Waning Crescent
Oct 27
New
Nov 4
First Quarter
Nov 12
Full
Nov 19
Last Quarter

Hourly Weather History & Observations

Time (EDT) Temp. Dew Point Humidity Pressure Visibility Wind Dir Wind Speed Gust Speed Precip Events Conditions
12:15 AM 49.1 °F 48.6 °F 98% 30.34 in 10.0 mi Calm Calm - N/A   Scattered Clouds
12:35 AM 49.1 °F 49.1 °F 100% 30.33 in 10.0 mi Calm Calm - N/A   Clear
12:55 AM 48.9 °F 48.9 °F 100% 30.33 in 7.0 mi Calm Calm - N/A   Clear
1:15 AM 49.1 °F 49.1 °F 100% 30.32 in 10.0 mi Calm Calm - N/A   Scattered Clouds
1:35 AM 48.9 °F 48.7 °F 99% 30.32 in - Calm Calm - N/A   Unknown
1:55 AM 47.8 °F 47.8 °F 100% 30.32 in 10.0 mi Calm Calm - N/A   Scattered Clouds
2:15 AM 49.1 °F 49.1 °F 100% 30.31 in 10.0 mi Calm Calm - N/A   Mostly Cloudy
2:35 AM 48.4 °F 48.4 °F 100% 30.31 in 10.0 mi Calm Calm - N/A   Mostly Cloudy
2:55 AM 49.5 °F 49.5 °F 100% 30.30 in 10.0 mi Calm Calm - N/A   Overcast
3:15 AM 50.2 °F 50.0 °F 99% 30.29 in 10.0 mi Calm Calm - N/A   Overcast
3:35 AM 50.9 °F 50.5 °F 99% 30.31 in 10.0 mi Calm Calm - N/A   Overcast
3:55 AM 50.9 °F 50.5 °F 99% 30.30 in 10.0 mi Calm Calm - N/A   Overcast
4:15 AM 49.8 °F 49.6 °F 99% 30.30 in 10.0 mi Calm Calm - N/A   Mostly Cloudy
4:35 AM 49.3 °F 49.3 °F 100% 30.30 in 10.0 mi Calm Calm - N/A   Scattered Clouds
4:55 AM 49.1 °F 49.1 °F 100% 30.30 in 10.0 mi Calm Calm - N/A   Mostly Cloudy
5:15 AM 48.4 °F 48.4 °F 100% 30.30 in 10.0 mi Calm Calm - N/A   Mostly Cloudy
5:35 AM 50.0 °F 49.6 °F 99% 30.30 in 10.0 mi Calm Calm - N/A   Overcast
5:55 AM 50.2 °F 50.2 °F 100% 30.30 in 10.0 mi Calm Calm - N/A   Overcast
6:15 AM 50.7 °F 50.2 °F 98% 30.31 in 10.0 mi Calm Calm - N/A   Overcast
6:35 AM 51.1 °F 50.5 °F 98% 30.31 in 10.0 mi Calm Calm - N/A   Overcast
6:55 AM 51.4 °F 50.9 °F 98% 30.31 in 10.0 mi Calm Calm - N/A   Overcast
7:15 AM 51.6 °F 51.1 °F 98% 30.31 in 10.0 mi Calm Calm - N/A   Overcast
7:35 AM 51.4 °F 50.9 °F 98% 30.32 in 10.0 mi Calm Calm - N/A   Overcast
7:55 AM 51.4 °F 50.9 °F 98% 30.32 in 10.0 mi Calm Calm - N/A   Overcast
8:15 AM 52.0 °F 51.4 °F 98% 30.33 in - Calm Calm - N/A   Overcast
8:35 AM 52.9 °F 51.8 °F 96% 30.32 in - Calm Calm - N/A   Overcast
8:55 AM 54.0 °F 52.7 °F 95% 30.33 in - Calm Calm - N/A   Overcast
9:15 AM 55.8 °F 53.6 °F 92% 30.32 in - Calm Calm - N/A   Overcast
9:55 AM 59.4 °F 55.9 °F 88% 30.33 in - Calm Calm - N/A   Mostly Cloudy
10:15 AM 60.1 °F 55.9 °F 86% 30.34 in - Calm Calm - N/A   Overcast
10:35 AM 61.3 °F 56.3 °F 83% 30.33 in - Calm Calm - N/A   Overcast
10:55 AM 63.5 °F 57.0 °F 79% 30.33 in - Calm Calm - N/A   Overcast
11:15 AM 64.4 °F 56.7 °F 76% 30.34 in - Calm Calm - N/A   Overcast
11:35 AM 64.9 °F 56.8 °F 75% 30.33 in - South 3.5 mph - N/A   Mostly Cloudy
11:55 AM 66.2 °F 57.0 °F 72% 30.32 in - SSE 3.5 mph - N/A   Scattered Clouds
12:35 PM 68.0 °F 57.0 °F 68% 30.30 in - Calm Calm - N/A   Scattered Clouds
12:55 PM 68.9 °F 56.7 °F 65% 30.28 in - SE 3.5 mph - N/A   Clear
1:15 PM 68.2 °F 57.2 °F 68% 30.28 in - Calm Calm - N/A   Clear
1:55 PM 69.1 °F 56.8 °F 65% 30.26 in - SSE 3.5 mph - N/A   Scattered Clouds
2:15 PM 70.9 °F 56.3 °F 60% 30.25 in - Calm Calm - N/A   Scattered Clouds
2:35 PM 70.7 °F 56.5 °F 61% 30.24 in - SSE 3.5 mph - N/A   Scattered Clouds
3:15 PM 70.9 °F 55.2 °F 58% 30.23 in - SE 3.5 mph - N/A   Scattered Clouds
3:35 PM 70.7 °F 55.6 °F 59% 30.23 in - SSE 4.6 mph - N/A   Scattered Clouds
3:55 PM 70.7 °F 55.4 °F 58% 30.22 in - SSE 3.5 mph - N/A   Clear
4:15 PM 70.3 °F 55.8 °F 60% 30.22 in - Calm Calm - N/A   Scattered Clouds
4:35 PM 70.0 °F 55.9 °F 61% 30.22 in - Calm Calm - N/A   Scattered Clouds
4:55 PM 69.8 °F 56.5 °F 63% 30.21 in 1.2 mi Calm Calm - N/A   Unknown
5:35 PM 68.9 °F 58.3 °F 69% 30.22 in 4.0 mi Calm Calm - N/A   Clear
6:15 PM 64.6 °F 59.2 °F 83% 30.22 in 10.0 mi Calm Calm - N/A   Clear
6:35 PM 62.1 °F 59.2 °F 90% 30.22 in - Calm Calm - N/A   Unknown
6:55 PM 61.7 °F 58.6 °F 90% 30.22 in 10.0 mi Calm Calm - N/A   Clear
7:15 PM 61.0 °F 58.8 °F 93% 30.22 in 5.0 mi Calm Calm - N/A   Clear
7:35 PM 60.1 °F 58.6 °F 95% 30.23 in 10.0 mi Calm Calm - N/A   Clear
8:15 PM 59.0 °F 58.5 °F 98% 30.23 in 10.0 mi Calm Calm - N/A   Clear
8:35 PM 58.5 °F 58.3 °F 99% 30.23 in 10.0 mi Calm Calm - N/A   Clear
8:55 PM 58.3 °F 57.9 °F 99% 30.23 in 10.0 mi Calm Calm - N/A   Clear
9:15 PM 57.9 °F 57.7 °F 99% 30.23 in - Calm Calm - N/A   Unknown
9:35 PM 57.0 °F 57.0 °F 100% 30.24 in - Calm Calm - N/A   Unknown
9:55 PM 57.9 °F 57.9 °F 100% 30.24 in - Calm Calm - N/A   Unknown
10:15 PM 57.4 °F 57.4 °F 100% 30.24 in - Calm Calm - N/A   Unknown
10:55 PM 57.4 °F 57.2 °F 99% 30.25 in - Calm Calm - N/A   Unknown
11:15 PM 58.3 °F 57.6 °F 97% 30.25 in - Calm Calm - N/A   Unknown
11:35 PM 57.4 °F 57.2 °F 99% 30.24 in - Calm Calm - N/A   Unknown
11:55 PM 56.7 °F 56.7 °F 100% 30.24 in - Calm Calm - N/A   Unknown